Terminal Aerodrome Forecast
Issued by NWS Mt. Holly, NJ

Home | Current Version | Previous Version | Text Only | Print | Product List | Glossary On
Versions: 1 2 3 4 5 6 7 8 9 10 11 12 13 14 15 16 17 18
000
FTUS41 KPHI 202300
TAFABE
TAF
KABE 202335Z 2100/2124 VRB03KT P6SM OVC100
     FM210700 00000KT P6SM SCT040 OVC080
      TEMPO 2109/2113 6SM BR
     FM211600 VRB04KT P6SM BKN040=

USA.gov is the U.S. government's official web portal to all federal, state and local government web resources and services.